owner,sensor,date,latitude,longitude,vertical_datum,wind_speed,wind_to_direction,wind_speed_of_gust,qcFlag 
TABS,ioos:station:wmo:42045:1,2008-05-01T00:00:00Z,26.2168,-96.4998,4.0,8.45852233,142.4936564,11.53,'11111222,11111222,11111222' 
TABS,ioos:station:wmo:42045:1,2008-05-01T00:30:00Z,26.2168,-96.4998,4.0,8.753884852,140.1444511,11.5,'11111222,11111222,11111222' 
TABS,ioos:station:wmo:42045:1,2008-05-01T01:00:00Z,26.2168,-96.4998,4.0,9.097219355,141.6060671,11.86,'11111222,11111222,11111222' 
TABS,ioos:station:wmo:42045:1,2008-05-01T01:30:00Z,26.2168,-96.4998,4.0,9.408469589,142.5579488,12.08,'11111222,11111222,11111222' 
TABS,ioos:station:wmo:42045:1,2008-05-01T02:00:00Z,26.2168,-96.4998,4.0,9.846684721,147.0203286,12.72,'11111222,11111222,11111222' 
TABS,ioos:station:wmo:42045:1,2008-05-01T02:30:00Z,26.2168,-96.4998,4.0,9.737787223,146.1796708,12.36,'11111222,11111222,11111222' 
TABS,ioos:station:wmo:42045:1,2008-05-01T03:00:00Z,26.2168,-96.4998,4.0,9.238187052,150.4938728,12.16,'11111222,11111222,11111222' 
TABS,ioos:station:wmo:42045:1,2008-05-01T03:30:00Z,26.2168,-96.4998,4.0,8.542247948,154.0351539,10.74,'11111222,11111222,11111222' 
TABS,ioos:station:wmo:42045:1,2008-05-01T04:00:00Z,26.2168,-96.4998,4.0,7.754205311,156.1128012,10.27,'11111222,11111222,11111222' 
TABS,ioos:station:wmo:42045:1,2008-05-01T04:30:00Z,26.2168,-96.4998,4.0,8.580984792,158.2484478,11.32,'11111222,11111222,11111222' 
TABS,ioos:station:wmo:42045:1,2008-05-01T05:00:00Z,26.2168,-96.4998,4.0,8.35644063,157.8550822,11.22,'11111222,11111222,11111222' 
TABS,ioos:station:wmo:42045:1,2008-05-01T05:30:00Z,26.2168,-96.4998,4.0,8.324061509,159.1703048,10.74,'11111222,11111222,11111222' 
TABS,ioos:station:wmo:42045:1,2008-05-01T06:00:00Z,26.2168,-96.4998,4.0,8.852440342,157.6940576,11.3,'11111222,11111222,11111222' 
TABS,ioos:station:wmo:42045:1,2008-05-01T06:30:00Z,26.2168,-96.4998,4.0,8.946647417,159.3167899,11.7,'11111222,11111222,11111222' 
TABS,ioos:station:wmo:42045:1,2008-05-01T07:00:00Z,26.2168,-96.4998,4.0,8.766989221,163.3636029,11.25,'11111222,11111222,11111222' 
TABS,ioos:station:wmo:42045:1,2008-05-01T07:30:00Z,26.2168,-96.4998,4.0,9.174404613,163.7974993,12.31,'11111222,11111222,11111222' 
TABS,ioos:station:wmo:42045:1,2008-05-01T08:00:00Z,26.2168,-96.4998,4.0,8.29769245,163.1158186,10.51,'11111222,11111222,11111222' 
TABS,ioos:station:wmo:42045:1,2008-05-01T08:30:00Z,26.2168,-96.4998,4.0,8.817221785,163.8674077,11.27,'11111222,11111222,11111222' 
TABS,ioos:station:wmo:42045:1,2008-05-01T09:00:00Z,26.2168,-96.4998,4.0,8.456535934,168.6105796,11.87,'11111222,11111222,11111222' 
TABS,ioos:station:wmo:42045:1,2008-05-01T09:30:00Z,26.2168,-96.4998,4.0,7.447368663,167.8302553,9.72,'11111222,11111222,11111222' 
TABS,ioos:station:wmo:42045:1,2008-05-01T10:00:00Z,26.2168,-96.4998,4.0,7.485779852,171.3180796,9.76,'11111222,11111222,11111222' 
TABS,ioos:station:wmo:42045:1,2008-05-01T10:30:00Z,26.2168,-96.4998,4.0,8.048701759,168.9695208,11.01,'11111222,11111222,11111222' 
TABS,ioos:station:wmo:42045:1,2008-05-01T11:00:00Z,26.2168,-96.4998,4.0,7.779177334,167.6791398,9.84,'11111222,11111222,11111222' 
TABS,ioos:station:wmo:42045:1,2008-05-01T11:30:00Z,26.2168,-96.4998,4.0,7.24851709,164.0657095,9.74,'11111222,11111222,11111222' 
TABS,ioos:station:wmo:42045:1,2008-05-01T12:00:00Z,26.2168,-96.4998,4.0,6.887764514,157.642751,9.55,'11111222,11111222,11111222' 
TABS,ioos:station:wmo:42045:1,2008-05-01T12:30:00Z,26.2168,-96.4998,4.0,7.972264421,158.7460334,10.35,'11111222,11111222,11111222' 
TABS,ioos:station:wmo:42045:1,2008-05-01T13:00:00Z,26.2168,-96.4998,4.0,7.437701258,157.4692839,10.29,'11111222,11111222,11111222' 
TABS,ioos:station:wmo:42045:1,2008-05-01T13:30:00Z,26.2168,-96.4998,4.0,7.303293777,151.3647732,9.79,'11111222,11111222,11111222' 
TABS,ioos:station:wmo:42045:1,2008-05-01T14:00:00Z,26.2168,-96.4998,4.0,7.652248036,154.0379587,10.04,'11111222,11111222,11111222' 
TABS,ioos:station:wmo:42045:1,2008-05-01T14:30:00Z,26.2168,-96.4998,4.0,7.999081197,144.72074,10.33,'11111222,11111222,11111222' 
TABS,ioos:station:wmo:42045:1,2008-05-01T15:00:00Z,26.2168,-96.4998,4.0,7.536345268,151.2927374,9.54,'11111222,11111222,11111222' 
TABS,ioos:station:wmo:42045:1,2008-05-01T15:30:00Z,26.2168,-96.4998,4.0,7.996424201,153.8838359,10.76,'11111222,11111222,11111222' 
TABS,ioos:station:wmo:42045:1,2008-05-01T16:00:00Z,26.2168,-96.4998,4.0,7.992521505,157.7994929,9.86,'11111222,11111222,11111222' 
TABS,ioos:station:wmo:42045:1,2008-05-01T16:30:00Z,26.2168,-96.4998,4.0,7.868754666,159.6998816,9.93,'11111222,11111222,11111222' 
TABS,ioos:station:wmo:42045:1,2008-05-01T17:00:00Z,26.2168,-96.4998,4.0,7.334807428,156.9657859,10.11,'11111222,11111222,11111222' 
TABS,ioos:station:wmo:42045:1,2008-05-01T17:30:00Z,26.2168,-96.4998,4.0,7.741136867,159.2709582,10.05,'11111222,11111222,11111222' 
TABS,ioos:station:wmo:42045:1,2008-05-01T18:00:00Z,26.2168,-96.4998,4.0,7.201569273,159.6025139,9.36,'11111222,11111222,11111222' 
TABS,ioos:station:wmo:42045:1,2008-05-01T18:30:00Z,26.2168,-96.4998,4.0,7.124921052,162.0993366,9.83,'11111222,11111222,11111222' 
TABS,ioos:station:wmo:42045:1,2008-05-01T19:00:00Z,26.2168,-96.4998,4.0,6.840562842,164.1353878,8.93,'11111222,11111222,11111222' 
TABS,ioos:station:wmo:42045:1,2008-05-01T19:30:00Z,26.2168,-96.4998,4.0,7.295861841,168.1358478,9.56,'11111222,11111222,11111222' 
TABS,ioos:station:wmo:42045:1,2008-05-01T20:00:00Z,26.2168,-96.4998,4.0,6.746035873,163.5531923,8.59,'11111222,11111222,11111222' 
TABS,ioos:station:wmo:42045:1,2008-05-01T20:30:00Z,26.2168,-96.4998,4.0,7.151006922,164.1759143,9.12,'11111222,11111222,11111222' 
TABS,ioos:station:wmo:42045:1,2008-05-01T21:00:00Z,26.2168,-96.4998,4.0,7.5840952,163.4529636,10.13,'11111222,11111222,11111222' 
TABS,ioos:station:wmo:42045:1,2008-05-01T21:30:00Z,26.2168,-96.4998,4.0,7.046474296,162.4910066,8.91,'11111222,11111222,11111222' 
TABS,ioos:station:wmo:42045:1,2008-05-01T22:00:00Z,26.2168,-96.4998,4.0,6.857944298,160.1384942,8.93,'11111222,11111222,11111222' 
TABS,ioos:station:wmo:42045:1,2008-05-01T22:30:00Z,26.2168,-96.4998,4.0,6.867321166,158.7411147,8.8,'11111222,11111222,11111222' 
TABS,ioos:station:wmo:42045:1,2008-05-01T23:00:00Z,26.2168,-96.4998,4.0,6.878517282,152.8391894,8.54,'11111222,11111222,11111222' 
TABS,ioos:station:wmo:42045:1,2008-05-01T23:30:00Z,26.2168,-96.4998,4.0,7.115848509,152.6430002,9.41,'11111222,11111222,11111222' 
TABS,ioos:station:wmo:42045:1,2008-05-02T00:00:00Z,26.2168,-96.4998,4.0,7.148664211,150.9612438,8.82,'11111222,11111222,11111222' 
TABS,ioos:station:wmo:42045:1,2008-05-02T00:30:00Z,26.2168,-96.4998,4.0,7.866746469,151.4479445,10.51,'11111222,11111222,11111222' 
TABS,ioos:station:wmo:42045:1,2008-05-02T01:00:00Z,26.2168,-96.4998,4.0,7.634192819,152.9653204,10.08,'11111222,11111222,11111222' 
TABS,ioos:station:wmo:42045:1,2008-05-02T01:30:00Z,26.2168,-96.4998,4.0,6.954494949,152.8825474,9.1,'11111222,11111222,11111222' 
TABS,ioos:station:wmo:42045:1,2008-05-02T02:00:00Z,26.2168,-96.4998,4.0,7.53814964,150.9530568,9.63,'11111222,11111222,11111222' 
TABS,ioos:station:wmo:42045:1,2008-05-02T02:30:00Z,26.2168,-96.4998,4.0,7.873074368,155.7791582,10.18,'11111222,11111222,11111222' 
TABS,ioos:station:wmo:42045:1,2008-05-02T03:00:00Z,26.2168,-96.4998,4.0,6.940583549,159.2413122,8.88,'11111222,11111222,11111222' 
TABS,ioos:station:wmo:42045:1,2008-05-02T03:30:00Z,26.2168,-96.4998,4.0,6.442305488,160.6934206,8.11,'11111222,11111222,11111222' 
TABS,ioos:station:wmo:42045:1,2008-05-02T04:00:00Z,26.2168,-96.4998,4.0,6.850065693,151.6768609,8.6,'11111222,11111222,11111222' 
TABS,ioos:station:wmo:42045:1,2008-05-02T04:30:00Z,26.2168,-96.4998,4.0,6.740066765,156.4779734,9.1,'11111222,11111222,11111222' 
TABS,ioos:station:wmo:42045:1,2008-05-02T05:00:00Z,26.2168,-96.4998,4.0,5.77169819,162.3501275,7.92,'11111222,11111222,11111222' 
TABS,ioos:station:wmo:42045:1,2008-05-02T05:30:00Z,26.2168,-96.4998,4.0,6.225255015,155.6172494,7.94,'11111222,11111222,11111222' 
TABS,ioos:station:wmo:42045:1,2008-05-02T06:00:00Z,26.2168,-96.4998,4.0,7.789666232,160.6581413,9.81,'11111222,11111222,11111222' 
TABS,ioos:station:wmo:42045:1,2008-05-02T06:30:00Z,26.2168,-96.4998,4.0,8.066845728,159.992878,10.12,'11111222,11111222,11111222' 
TABS,ioos:station:wmo:42045:1,2008-05-02T07:00:00Z,26.2168,-96.4998,4.0,8.38880206,162.9477368,10.32,'11111222,11111222,11111222' 
TABS,ioos:station:wmo:42045:1,2008-05-02T07:30:00Z,26.2168,-96.4998,4.0,8.427484797,161.6728011,10.81,'11111222,11111222,11111222' 
TABS,ioos:station:wmo:42045:1,2008-05-02T08:00:00Z,26.2168,-96.4998,4.0,8.123847611,159.3121389,10.42,'11111222,11111222,11111222' 
TABS,ioos:station:wmo:42045:1,2008-05-02T08:30:00Z,26.2168,-96.4998,4.0,8.387860275,158.2369053,10.88,'11111222,11111222,11111222' 
TABS,ioos:station:wmo:42045:1,2008-05-02T09:00:00Z,26.2168,-96.4998,4.0,8.24229337,160.5100937,10.58,'11111222,11111222,11111222' 
TABS,ioos:station:wmo:42045:1,2008-05-02T09:30:00Z,26.2168,-96.4998,4.0,8.611213619,158.8289922,10.82,'11111222,11111222,11111222' 
TABS,ioos:station:wmo:42045:1,2008-05-02T10:00:00Z,26.2168,-96.4998,4.0,8.558703173,158.2610082,10.93,'11111222,11111222,11111222' 
TABS,ioos:station:wmo:42045:1,2008-05-02T10:30:00Z,26.2168,-96.4998,4.0,7.669947849,158.9895649,10.62,'11111222,11111222,11111222' 
TABS,ioos:station:wmo:42045:1,2008-05-02T11:00:00Z,26.2168,-96.4998,4.0,7.727897515,153.236279,11.01,'11111222,11111222,11111222' 
TABS,ioos:station:wmo:42045:1,2008-05-02T11:30:00Z,26.2168,-96.4998,4.0,7.874065024,149.7228931,10.07,'11111222,11111222,11111222' 
TABS,ioos:station:wmo:42045:1,2008-05-02T12:00:00Z,26.2168,-96.4998,4.0,7.651888656,150.6547621,10.01,'11111222,11111222,11111222' 
TABS,ioos:station:wmo:42045:1,2008-05-02T12:30:00Z,26.2168,-96.4998,4.0,7.128997124,155.5563128,9.26,'11111222,11111222,11111222' 
TABS,ioos:station:wmo:42045:1,2008-05-02T13:00:00Z,26.2168,-96.4998,4.0,6.417631962,148.6384337,8.27,'11111222,11111222,11111222' 
TABS,ioos:station:wmo:42045:1,2008-05-02T13:30:00Z,26.2168,-96.4998,4.0,7.153292948,142.0410158,9.35,'11111222,11111222,11111222' 
TABS,ioos:station:wmo:42045:1,2008-05-02T14:00:00Z,26.2168,-96.4998,4.0,6.216309194,138.9791235,8.06,'11111222,11111222,11111222' 
TABS,ioos:station:wmo:42045:1,2008-05-02T14:30:00Z,26.2168,-96.4998,4.0,5.514798274,140.7401354,7.21,'11111222,11111222,11111222' 
TABS,ioos:station:wmo:42045:1,2008-05-02T15:00:00Z,26.2168,-96.4998,4.0,5.297405025,144.4500427,6.71,'11111222,11111222,11111222' 
TABS,ioos:station:wmo:42045:1,2008-05-02T15:30:00Z,26.2168,-96.4998,4.0,4.643888457,150.4543411,6.41,'11111222,11111222,11111222' 
TABS,ioos:station:wmo:42045:1,2008-05-02T16:00:00Z,26.2168,-96.4998,4.0,4.163099807,145.966681,5.77,'11111222,11111222,11111222' 
TABS,ioos:station:wmo:42045:1,2008-05-02T16:30:00Z,26.2168,-96.4998,4.0,3.380902246,146.2162175,4.47,'11111222,11111222,11111222' 
TABS,ioos:station:wmo:42045:1,2008-05-02T17:00:00Z,26.2168,-96.4998,4.0,3.857797299,156.9576865,5.14,'11111222,11111222,11111222' 
TABS,ioos:station:wmo:42045:1,2008-05-02T17:30:00Z,26.2168,-96.4998,4.0,4.477722635,156.2976199,5.56,'11111222,11111222,11111222' 
TABS,ioos:station:wmo:42045:1,2008-05-02T18:00:00Z,26.2168,-96.4998,4.0,4.36,146.6018001,5.41,'11111222,11111222,11111222' 
TABS,ioos:station:wmo:42045:1,2008-05-02T18:30:00Z,26.2168,-96.4998,4.0,4.656533045,152.2245426,5.89,'11111222,11111222,11111222' 
TABS,ioos:station:wmo:42045:1,2008-05-02T19:00:00Z,26.2168,-96.4998,4.0,3.980803939,163.659443,5.14,'11111222,11111222,11111222' 
TABS,ioos:station:wmo:42045:1,2008-05-02T19:30:00Z,26.2168,-96.4998,4.0,3.317483986,162.2753193,4.41,'11111222,11111222,11111222' 
TABS,ioos:station:wmo:42045:1,2008-05-02T20:00:00Z,26.2168,-96.4998,4.0,2.232308222,157.3409114,3.25,'11111222,11111222,11111222' 
TABS,ioos:station:wmo:42045:1,2008-05-02T20:30:00Z,26.2168,-96.4998,4.0,2.213255521,135.1833682,3.14,'11111222,11111222,11111222' 
TABS,ioos:station:wmo:42045:1,2008-05-02T21:00:00Z,26.2168,-96.4998,4.0,3.433322006,137.7153947,4.53,'11111222,11111222,11111222' 
TABS,ioos:station:wmo:42045:1,2008-05-02T21:30:00Z,26.2168,-96.4998,4.0,4.208622102,133.5561935,5.39,'11111222,11111222,11111222' 
TABS,ioos:station:wmo:42045:1,2008-05-02T22:00:00Z,26.2168,-96.4998,4.0,3.55578402,124.2267027,5.15,'11111222,11111222,11111222' 
TABS,ioos:station:wmo:42045:1,2008-05-02T22:30:00Z,26.2168,-96.4998,4.0,2.724646766,112.8952241,3.91,'11111222,11111222,11111222' 
TABS,ioos:station:wmo:42045:1,2008-05-02T23:00:00Z,26.2168,-96.4998,4.0,2.022992832,103.1436063,3.06,'11111222,11111222,11111222' 
TABS,ioos:station:wmo:42045:1,2008-05-02T23:30:00Z,26.2168,-96.4998,4.0,1.646845469,95.22633611,2.78,'11111222,11111222,11111222' 
TABS,ioos:station:wmo:42045:1,2008-05-03T00:00:00Z,26.2168,-96.4998,4.0,2.420123964,101.6817684,3.45,'11111222,11111222,11111222' 
TABS,ioos:station:wmo:42045:1,2008-05-03T00:30:00Z,26.2168,-96.4998,4.0,3.048540634,107.959855,4.05,'11111222,11111222,11111222' 
TABS,ioos:station:wmo:42045:1,2008-05-03T01:00:00Z,26.2168,-96.4998,4.0,2.536710468,99.75977936,3.68,'11111222,11111222,11111222' 
TABS,ioos:station:wmo:42045:1,2008-05-03T01:30:00Z,26.2168,-96.4998,4.0,4.249235225,112.70321,5.71,'11111222,11111222,11111222' 
TABS,ioos:station:wmo:42045:1,2008-05-03T02:00:00Z,26.2168,-96.4998,4.0,4.35845156,105.981894,5.79,'11111222,11111222,11111222' 
TABS,ioos:station:wmo:42045:1,2008-05-03T02:30:00Z,26.2168,-96.4998,4.0,5.085518656,113.0362279,6.33,'11111222,11111222,11111222' 
TABS,ioos:station:wmo:42045:1,2008-05-03T03:00:00Z,26.2168,-96.4998,4.0,4.920995834,107.6252879,6.19,'11111222,11111222,11111222' 
TABS,ioos:station:wmo:42045:1,2008-05-03T03:30:00Z,26.2168,-96.4998,4.0,5.314132102,123.331569,6.88,'11111222,11111222,11111222' 
TABS,ioos:station:wmo:42045:1,2008-05-03T04:00:00Z,26.2168,-96.4998,4.0,4.518683437,134.372689,5.83,'11111222,11111222,11111222' 
TABS,ioos:station:wmo:42045:1,2008-05-03T04:30:00Z,26.2168,-96.4998,4.0,4.230413691,133.2762182,5.53,'11111222,11111222,11111222' 
TABS,ioos:station:wmo:42045:1,2008-05-03T05:00:00Z,26.2168,-96.4998,4.0,3.552252806,139.2240628,4.76,'11111222,11111222,11111222' 
TABS,ioos:station:wmo:42045:1,2008-05-03T05:30:00Z,26.2168,-96.4998,4.0,3.497942252,138.0130961,4.49,'11111222,11111222,11111222' 
TABS,ioos:station:wmo:42045:1,2008-05-03T06:00:00Z,26.2168,-96.4998,4.0,3.927390991,149.386801,5.29,'11111222,11111222,11111222' 
TABS,ioos:station:wmo:42045:1,2008-05-03T06:30:00Z,26.2168,-96.4998,4.0,5.134296446,145.474526,6.75,'11111222,11111222,11111222' 
TABS,ioos:station:wmo:42045:1,2008-05-03T07:00:00Z,26.2168,-96.4998,4.0,4.776358446,145.5782614,5.94,'11111222,11111222,11111222' 
TABS,ioos:station:wmo:42045:1,2008-05-03T07:30:00Z,26.2168,-96.4998,4.0,5.099813722,144.6585199,6.42,'11111222,11111222,11111222' 
TABS,ioos:station:wmo:42045:1,2008-05-03T08:00:00Z,26.2168,-96.4998,4.0,5.267200395,145.6766464,6.26,'11111222,11111222,11111222' 
TABS,ioos:station:wmo:42045:1,2008-05-03T08:30:00Z,26.2168,-96.4998,4.0,4.11549511,150.4453474,5.83,'11111222,11111222,11111222' 
TABS,ioos:station:wmo:42045:1,2008-05-03T09:00:00Z,26.2168,-96.4998,4.0,4.265501143,148.3223836,5.42,'11111222,11111222,11111222' 
TABS,ioos:station:wmo:42045:1,2008-05-03T09:30:00Z,26.2168,-96.4998,4.0,3.629889805,140.4776716,4.83,'11111222,11111222,11111222' 
TABS,ioos:station:wmo:42045:1,2008-05-03T10:00:00Z,26.2168,-96.4998,4.0,3.435825956,128.7382691,4.26,'11111222,11111222,11111222' 
TABS,ioos:station:wmo:42045:1,2008-05-03T10:30:00Z,26.2168,-96.4998,4.0,3.970453375,127.7360956,5.04,'11111222,11111222,11111222' 
TABS,ioos:station:wmo:42045:1,2008-05-03T11:00:00Z,26.2168,-96.4998,4.0,3.602179896,127.4428516,4.59,'11111222,11111222,11111222' 
TABS,ioos:station:wmo:42045:1,2008-05-03T11:30:00Z,26.2168,-96.4998,4.0,3.604511063,119.4100589,4.72,'11111222,11111222,11111222' 
TABS,ioos:station:wmo:42045:1,2008-05-03T12:00:00Z,26.2168,-96.4998,4.0,3.438618909,106.9071025,4.41,'11111222,11111222,11111222' 
TABS,ioos:station:wmo:42045:1,2008-05-03T12:30:00Z,26.2168,-96.4998,4.0,3.640494472,90.94476911,4.7,'11111222,11111222,11111222' 
TABS,ioos:station:wmo:42045:1,2008-05-03T13:00:00Z,26.2168,-96.4998,4.0,3.872492737,73.34288859,4.94,'11111222,11111222,11111222' 
TABS,ioos:station:wmo:42045:1,2008-05-03T13:30:00Z,26.2168,-96.4998,4.0,3.350492501,83.65940216,4.64,'11111222,11111222,11111222' 
TABS,ioos:station:wmo:42045:1,2008-05-03T14:00:00Z,26.2168,-96.4998,4.0,2.430226327,76.19209235,3.4,'11111222,11111222,11111222' 
TABS,ioos:station:wmo:42045:1,2008-05-03T14:30:00Z,26.2168,-96.4998,4.0,2.657084869,55.89094485,3.42,'11111222,11111222,11111222' 
TABS,ioos:station:wmo:42045:1,2008-05-03T15:00:00Z,26.2168,-96.4998,4.0,3.175547197,43.85137303,4.19,'11111222,11111222,11111222' 
TABS,ioos:station:wmo:42045:1,2008-05-03T15:30:00Z,26.2168,-96.4998,4.0,3.394009428,53.26481901,4.34,'11111222,11111222,11111222' 
TABS,ioos:station:wmo:42045:1,2008-05-03T16:00:00Z,26.2168,-96.4998,4.0,4.168285019,51.23252594,5.38,'11111222,11111222,11111222' 
TABS,ioos:station:wmo:42045:1,2008-05-03T16:30:00Z,26.2168,-96.4998,4.0,4.404588517,52.19313755,5.47,'11111222,11111222,11111222' 
TABS,ioos:station:wmo:42045:1,2008-05-03T17:00:00Z,26.2168,-96.4998,4.0,4.608210065,52.58269044,5.8,'11111222,11111222,11111222' 
TABS,ioos:station:wmo:42045:1,2008-05-03T17:30:00Z,26.2168,-96.4998,4.0,5.28932888,45.45926519,6.92,'11111222,11111222,11111222' 
TABS,ioos:station:wmo:42045:1,2008-05-03T18:00:00Z,26.2168,-96.4998,4.0,5.282887468,45.99669664,7.06,'11111222,11111222,11111222' 
TABS,ioos:station:wmo:42045:1,2008-05-03T18:30:00Z,26.2168,-96.4998,4.0,4.967947262,55.41391899,6.09,'11111222,11111222,11111222' 
TABS,ioos:station:wmo:42045:1,2008-05-03T19:00:00Z,26.2168,-96.4998,4.0,4.706166168,59.62052411,5.93,'11111222,11111222,11111222' 
TABS,ioos:station:wmo:42045:1,2008-05-03T19:30:00Z,26.2168,-96.4998,4.0,4.54528327,58.12788905,6.01,'11111222,11111222,11111222' 
TABS,ioos:station:wmo:42045:1,2008-05-03T20:00:00Z,26.2168,-96.4998,4.0,4.477945958,54.81896199,5.58,'11111222,11111222,11111222' 
TABS,ioos:station:wmo:42045:1,2008-05-03T20:30:00Z,26.2168,-96.4998,4.0,4.641551465,51.64831395,5.86,'11111222,11111222,11111222' 
TABS,ioos:station:wmo:42045:1,2008-05-03T21:00:00Z,26.2168,-96.4998,4.0,4.961904876,58.2635497,6.64,'11111222,11111222,11111222' 
TABS,ioos:station:wmo:42045:1,2008-05-03T21:30:00Z,26.2168,-96.4998,4.0,5.137207413,75.34120222,6.33,'11111222,11111222,11111222' 
TABS,ioos:station:wmo:42045:1,2008-05-03T22:00:00Z,26.2168,-96.4998,4.0,4.886921321,56.17952099,6.22,'11111222,11111222,11111222' 
TABS,ioos:station:wmo:42045:1,2008-05-03T22:30:00Z,26.2168,-96.4998,4.0,4.567767507,65.00547746,6.06,'11111222,11111222,11111222' 
TABS,ioos:station:wmo:42045:1,2008-05-03T23:00:00Z,26.2168,-96.4998,4.0,4.377590662,38.41421893,5.88,'11111222,11111222,11111222' 
TABS,ioos:station:wmo:42045:1,2008-05-03T23:30:00Z,26.2168,-96.4998,4.0,5.233784482,34.17558028,6.61,'11111222,11111222,11111222' 
TABS,ioos:station:wmo:42045:1,2008-05-04T00:00:00Z,26.2168,-96.4998,4.0,4.901530373,34.69486194,6.93,'11111222,11111222,11111222' 
TABS,ioos:station:wmo:42045:1,2008-05-04T00:30:00Z,26.2168,-96.4998,4.0,5.270455388,43.23138711,6.71,'11111222,11111222,11111222' 
TABS,ioos:station:wmo:42045:1,2008-05-04T01:00:00Z,26.2168,-96.4998,4.0,4.967836551,47.28376998,6.74,'11111222,11111222,11111222' 
TABS,ioos:station:wmo:42045:1,2008-05-04T01:30:00Z,26.2168,-96.4998,4.0,5.190616534,54.01286759,6.74,'11111222,11111222,11111222' 
TABS,ioos:station:wmo:42045:1,2008-05-04T02:00:00Z,26.2168,-96.4998,4.0,4.960453608,54.93194048,6.25,'11111222,11111222,11111222' 
TABS,ioos:station:wmo:42045:1,2008-05-04T02:30:00Z,26.2168,-96.4998,4.0,5.178899497,61.00951662,7.15,'11111222,11111222,11111222' 
TABS,ioos:station:wmo:42045:1,2008-05-04T03:00:00Z,26.2168,-96.4998,4.0,5.630781473,58.28549231,7.11,'11111222,11111222,11111222' 
TABS,ioos:station:wmo:42045:1,2008-05-04T03:30:00Z,26.2168,-96.4998,4.0,5.807004391,52.06410865,7.62,'11111222,11111222,11111222' 
TABS,ioos:station:wmo:42045:1,2008-05-04T04:00:00Z,26.2168,-96.4998,4.0,6.949856114,50.07798994,8.92,'11111222,11111222,11111222' 
TABS,ioos:station:wmo:42045:1,2008-05-04T04:30:00Z,26.2168,-96.4998,4.0,7.634507188,53.79020694,10.77,'11111222,11111222,11111222' 
TABS,ioos:station:wmo:42045:1,2008-05-04T05:00:00Z,26.2168,-96.4998,4.0,7.784118447,64.91604373,9.64,'11111222,11111222,11111222' 
TABS,ioos:station:wmo:42045:1,2008-05-04T05:30:00Z,26.2168,-96.4998,4.0,7.120589863,64.37023975,9.17,'11111222,11111222,11111222' 
TABS,ioos:station:wmo:42045:1,2008-05-04T06:00:00Z,26.2168,-96.4998,4.0,6.029568807,67.98647293,7.96,'11111222,11111222,11111222' 
TABS,ioos:station:wmo:42045:1,2008-05-04T06:30:00Z,26.2168,-96.4998,4.0,5.344342803,71.22564984,6.99,'11111222,11111222,11111222' 
TABS,ioos:station:wmo:42045:1,2008-05-04T07:00:00Z,26.2168,-96.4998,4.0,5.964310522,75.33428334,7.58,'11111222,11111222,11111222' 
TABS,ioos:station:wmo:42045:1,2008-05-04T07:30:00Z,26.2168,-96.4998,4.0,5.648309482,78.2520065,6.92,'11111222,11111222,11111222' 
TABS,ioos:station:wmo:42045:1,2008-05-04T08:00:00Z,26.2168,-96.4998,4.0,5.283710817,84.56954071,6.79,'11111222,11111222,11111222' 
TABS,ioos:station:wmo:42045:1,2008-05-04T08:30:00Z,26.2168,-96.4998,4.0,5.030089462,89.6578596,6.43,'11111222,11111222,11111222' 
TABS,ioos:station:wmo:42045:1,2008-05-04T09:00:00Z,26.2168,-96.4998,4.0,5.470447879,89.26640243,7.0,'11111222,11111222,11111222' 
TABS,ioos:station:wmo:42045:1,2008-05-04T09:30:00Z,26.2168,-96.4998,4.0,6.360196538,90.4508491,8.14,'11111222,11111222,11111222' 
TABS,ioos:station:wmo:42045:1,2008-05-04T10:00:00Z,26.2168,-96.4998,4.0,5.840693452,89.11666814,7.7,'11111222,11111222,11111222' 
TABS,ioos:station:wmo:42045:1,2008-05-04T10:30:00Z,26.2168,-96.4998,4.0,5.369851022,97.81362349,6.72,'11111222,11111222,11111222' 
TABS,ioos:station:wmo:42045:1,2008-05-04T11:00:00Z,26.2168,-96.4998,4.0,4.512493767,88.09466114,5.78,'11111222,11111222,11111222' 
TABS,ioos:station:wmo:42045:1,2008-05-04T11:30:00Z,26.2168,-96.4998,4.0,4.369633852,93.80576471,5.89,'11111222,11111222,11111222' 
TABS,ioos:station:wmo:42045:1,2008-05-04T12:00:00Z,26.2168,-96.4998,4.0,2.371919054,107.67143,4.16,'11111222,11111222,11111222' 
TABS,ioos:station:wmo:42045:1,2008-05-04T12:30:00Z,26.2168,-96.4998,4.0,4.124039282,126.6201559,5.15,'11111222,11111222,11111222' 
TABS,ioos:station:wmo:42045:1,2008-05-04T13:00:00Z,26.2168,-96.4998,4.0,3.386399268,125.990392,4.71,'11111222,11111222,11111222' 
TABS,ioos:station:wmo:42045:1,2008-05-04T13:30:00Z,26.2168,-96.4998,4.0,4.406926367,112.5502261,5.83,'11111222,11111222,11111222' 
TABS,ioos:station:wmo:42045:1,2008-05-04T14:00:00Z,26.2168,-96.4998,4.0,4.745366161,120.9433983,6.36,'11111222,11111222,11111222' 
TABS,ioos:station:wmo:42045:1,2008-05-04T14:30:00Z,26.2168,-96.4998,4.0,4.253774794,121.9343418,5.44,'11111222,11111222,11111222' 
TABS,ioos:station:wmo:42045:1,2008-05-04T15:00:00Z,26.2168,-96.4998,4.0,4.124875756,124.7306332,5.04,'11111222,11111222,11111222' 
TABS,ioos:station:wmo:42045:1,2008-05-04T15:30:00Z,26.2168,-96.4998,4.0,3.752572451,123.4786751,4.79,'11111222,11111222,11111222' 
TABS,ioos:station:wmo:42045:1,2008-05-04T16:00:00Z,26.2168,-96.4998,4.0,3.402190471,127.4765128,4.46,'11111222,11111222,11111222' 
TABS,ioos:station:wmo:42045:1,2008-05-04T16:30:00Z,26.2168,-96.4998,4.0,3.934018302,127.0450025,4.95,'11111222,11111222,11111222' 
TABS,ioos:station:wmo:42045:1,2008-05-04T17:00:00Z,26.2168,-96.4998,4.0,3.825820174,125.102779,4.94,'11111222,11111222,11111222' 
TABS,ioos:station:wmo:42045:1,2008-05-04T17:30:00Z,26.2168,-96.4998,4.0,4.368065934,127.1850404,5.66,'11111222,11111222,11111222' 
TABS,ioos:station:wmo:42045:1,2008-05-04T18:00:00Z,26.2168,-96.4998,4.0,4.532162839,128.6403953,6.31,'11111222,11111222,11111222' 
TABS,ioos:station:wmo:42045:1,2008-05-04T18:30:00Z,26.2168,-96.4998,4.0,5.332738508,129.7508731,6.66,'11111222,11111222,11111222' 